This demonstration page uses our WeatherBlox Daily Observations layout. Learn more.

Left ArrowRight Arrow

Hourly Observations for April 22, 2018

Temp ( °F °C ) Dew Point ( °F °C ) Humidity (%) Winds ( mph kmh ) Pressure ( in mb ) Visibility ( mi km ) Precip ( " mm )
12:04 am 00:04 Cloudy with Light Rain 39 4 39 4 100 100 E 8 13 30.33 1027 7 11 0.00 0.03
12:56 am 00:56 Cloudy 40 4.4 39 3.9 97 97 E 5 7 30.29 1026 9 14 0.00 0.03
1:39 am 01:39 Cloudy 39 4 37 3 93 93 E 6 9 30.30 1026 10 16 0.00 0.00
1:56 am 01:56 Cloudy 39 3.9 38 3.3 96 96 E 3 6 30.27 1025 8 13 0.00 0.00
2:18 am 02:18 Cloudy 39 4 37 3 93 93 Calm 30.30 1026 8 13 0.00 0.00
2:36 am 02:36 Cloudy 39 4 37 3 93 93 NNW 3 6 30.30 1026 9 14 0.00 0.00
2:56 am 02:56 Cloudy 40 4.4 38 3.3 93 93 Calm 30.24 1024 7 11 0.00 0.00
3:56 am 03:56 Cloudy 40 4.4 38 3.3 93 93 NW 7 11 30.25 1025 7 11 0.00 0.00
4:56 am 04:56 Cloudy 40 4.4 38 3.3 93 93 N 7 11 30.25 1025 8 13 0.00 0.00
5:56 am 05:56 Cloudy 40 4.4 38 3.3 93 93 N 7 11 30.24 1024 9 14 0.00 0.00
6:56 am 06:56 Cloudy 40 4.4 38 3.3 93 93 NNE 8 13 30.26 1025 8 13 0.00 0.00
7:56 am 07:56 Cloudy 41 5 39 3.9 93 93 NNE 5 7 30.28 1025 10 16 0.00 0.00
8:56 am 08:56 Cloudy 43 6.1 39 3.9 86 86 N 9 15 30.27 1025 10 16 0.00 0.00
9:56 am 09:56 Cloudy 45 7.2 40 4.4 83 83 N 10 17 30.28 1025 10 16 0.00 0.00
10:56 am 10:56 Mostly Sunny 49 9.4 40 4.4 71 71 NE 12 19 30.27 1025 10 16 0.00 0.00
11:56 am 11:56 Sunny 53 11.7 38 3.3 57 57 NNE 7 11 30.27 1025 10 16 0.00 0.00
12:56 pm 12:56 Sunny 56 13.3 37 2.8 49 49 ENE 9 15 30.24 1024 10 16 0.00 0.00
1:56 pm 13:56 Sunny 58 14.4 37 2.8 46 46 NE 6 9 30.22 1023 10 16 0.00 0.00
2:56 pm 14:56 Sunny 59 15 37 2.8 44 44 ENE 10 17 30.20 1023 10 16 0.00 0.00
3:56 pm 15:56 Sunny 60 15.6 36 2.2 41 41 ENE 7 11 30.18 1022 10 16 0.00 0.00
4:56 pm 16:56 Sunny 61 16.1 37 2.8 41 41 NNW 6 9 30.16 1021 10 16 0.00 0.00
5:56 pm 17:56 Sunny 62 16.7 38 3.3 41 41 E 10 17 30.15 1021 10 16 0.00 0.00
6:56 pm 18:56 Mostly Cloudy 62 16.7 36 2.2 38 38 ENE 6 9 30.15 1021 10 16 0.00 0.00
7:56 pm 19:56 Cloudy 60 15.6 40 4.4 47 47 Calm 30.15 1021 10 16 0.00 0.00
8:56 pm 20:56 Mostly Cloudy 55 12.8 40 4.4 57 57 SE 8 13 30.17 1022 10 16 0.00 0.00
9:56 pm 21:56 Cloudy 52 11.1 40 4.4 64 64 SSE 5 7 30.19 1022 10 16 0.00 0.00
10:56 pm 22:56 Cloudy 53 11.7 39 3.9 59 59 Calm 30.19 1022 10 16 0.00 0.00
11:56 pm 23:56 Cloudy 52 11.1 41 5 66 66 Calm 30.18 1022 10 16 0.00 0.00

Powered by AerisWeather